Regional Weather Roundup
Issued by NWS

Home | Current Version | Previous Version | Text Only | Print | Product List | Glossary On
Versions: 1 2 3 4 5 6 7 8 9 10 11 12 13 14 15 16 17 18 19 20 21 22 23 24 25 26 27 28 29 30 31 32 33 34 35 36 37 38 39 40 41 42 43 44 45 46 47 48 49 50
000
ASUS44 KFWD 182301
RWRTX
NORTH TEXAS HOURLY WEATHER ROUNDUP
NATIONAL WEATHER SERVICE FORT WORTH TX
500 PM CST SUN FEB 18 2018

NOTE: "FAIR" INDICATES FEW OR NO CLOUDS BELOW 12,000 FEET WITH NO
SIGNIFICANT WEATHER AND/OR OBSTRUCTIONS TO VISIBILITY.

TXZ118-119-190000-
DALLAS/FORT WORTH METROPLEX

CITY           SKY/WX    TMP DP  RH WIND       PRES   REMARKS
DFW AIRPORT    CLOUDY    64  60  87 S12       29.89F
DALLAS LOVE    CLOUDY    61  59  93 S12       29.91R
FTW MEACHAM    CLOUDY    66  61  84 S17G29    29.88F
DAL-EXECUTIVE  CLOUDY    60  59  96 S10G21    29.90F
FTW-ALLIANCE   CLOUDY    64  59  83 S9        29.88F
FTW-NAS-JRB    CLOUDY    65  58  78 S15       29.89F
FTW-SPINKS     CLOUDY    63  61  94 S13       29.91F
ARLINGTON      CLOUDY    60  59  96 SE15      29.90F
GRAND PRAIRIE  CLOUDY    61  61 100 SE9       29.91S
ADDISON        CLOUDY    61  57  88 S10       29.91S
MESQUITE       CLOUDY    61  57  88 S14G22    29.92R FOG
LANCASTER      CLOUDY    59  58  94 S12G20    29.92R
$$

TXZ091>094-102>105-117-120-121-131>134-190000-
NORTH CENTRAL TEXAS

CITY           SKY/WX    TMP DP  RH WIND       PRES   REMARKS
SHRMAN/DENISON CLOUDY    55  53  94 SE8       29.91S
BOWIE          CLOUDY    57  55  91 S10G20    29.85F
BRIDGEPORT     CLOUDY    62  57  83 S10       29.88F
DECATUR        PTSUNNY   60  56  87 S7        29.87S
DENTON         CLOUDY    60  56  86 S8        29.89S
MCKINNEY       CLOUDY    59  58  96 S6        29.91R
BONHAM         CLOUDY    54  52  93 SE6       29.93R
ROCKWALL       CLOUDY    60  60 100 S12       29.92R
TERRELL        CLOUDY    61  58  90 S20G32    29.90R
WAXAHACHIE     CLOUDY    59  59 100 S8        29.93R FOG
CLEBURNE       CLOUDY    59  59 100 S14G22    29.92S FOG
GRANBURY       CLOUDY    61  58  90 E8        29.90F FOG
$$

TXZ083>090-098>101-113>116-127>130-139>142-154-155-190000-
WESTERN NORTH TEXAS

CITY           SKY/WX    TMP DP  RH WIND       PRES   REMARKS
WICHITA FALLS  FAIR      65  54  67 SE18      29.79F
WF-KICKAPOO    FAIR      66  55  68 S17       29.82F
VERNON         FAIR      75  50  41 S23       29.73F
ABILENE        PTSUNNY   73  62  68 S17G28    29.81F
BRECKENRIDGE   CLOUDY    68  58  70 S16       29.85F HAZE
CISCO          FAIR      68  61  77 S16G22    29.85F
EASTLAND       FAIR      68  59  72 S15       29.86S
RANGER         FAIR      68  60  73 S13G21    29.87S
MINERAL WELLS  CLOUDY    65  58  78 SE14      29.85F
STEPHENVILLE   CLOUDY    64  58  81 S13       29.91F
COMANCHE       FAIR      67  61  79 S24G35    29.87F
COLEMAN        FAIR      69  60  70 S16G24    29.88S
$$

TXZ143>147-156>162-174-175-190000-
CENTRAL TEXAS

CITY           SKY/WX    TMP DP  RH WIND       PRES   REMARKS
WACO           FOG       59  56  89 SE8       29.93F VSB 1
WACO-TSTC      FOG       57  57 100 S6        29.94F VSB 1/2
WACO-MCGREGOR  CLOUDY    60  58  92 S12       29.93F
HILLSBORO      CLOUDY    60  60 100 SE15      29.92S FOG
CORSICANA      CLOUDY    60  59  96 SE7       29.95F FOG
MEXIA          CLOUDY    66  61  84 SE10      29.94F
HEARNE         FAIR      77  65  66 SE14G20   29.96F
CAMERON        FAIR      76  64  66 S8G16     29.94F
TEMPLE         FAIR      67  62  84 S16       29.93F
KILLEEN        NOT AVBL
KILLEEN-SKYLRK CLOUDY    64  59  83 E6        29.93F
FORT HOOD      CLOUDY    58  57  97 E6        29.89F
GATESVILLE     CLOUDY    57  57 100 SE5       29.94F FOG
HAMILTON       CLOUDY    62  61  96 S16G23    29.92S
LAMPASAS       PTSUNNY   61  57  85 SE5       29.92F
$$

TXZ095>097-106>112-122>126-135>138-148>153-164>167-190000-
EAST TEXAS

CITY           SKY/WX    TMP DP  RH WIND       PRES   REMARKS
PARIS          CLOUDY    53  51  93 SE12      29.94F
SULPHUR SPRNGS CLOUDY    60  59  98 S8        29.94F
MOUNT PLEASANT CLOUDY    55  54  97 SE17G31   29.91F
GILMER         CLOUDY    57  56  96 SE6       29.98F
MINEOLA        CLOUDY    59  57  94 SE13G22   29.92F
TYLER          PTSUNNY   62  60  93 SE12      29.96F
LONGVIEW       CLOUDY    61  60  97 SE6       30.00F FOG
MARSHALL       CLOUDY    58  55  91 SE6       30.04F
ATHENS         CLOUDY    59  59 100 SE8       29.94F
PALESTINE      FAIR      68  64  84 SE6       29.98F
CENTER         FAIR      65  61  87 E10       30.04F
NACOGDOCHES    FAIR      69  63  81 E8        30.01F
LUFKIN         FAIR      73  64  73 S8        30.01F
$$

SUPPLEMENTAL OBSERVATIONS (NWS FORT WORTH AREA)

CITY           SKY/WX    TMP DP  RH WIND       PRES   REMARKS
$$

SUPPLEMENTAL OBSERVATIONS (NWS NORMAN AREA)

CITY           SKY/WX    TMP DP  RH WIND       PRES   REMARKS
GOODLETT         N/A     80  50  34 S24       29.68F
ODELL            N/A     73  55  54 SE23      29.73F
CROWELL          N/A     78  56  46 S24       29.73F
KNOX CITY        N/A     77  56  48 S28       29.74F
SEYMOUR          N/A     75  55  50 SE20      29.77F
$$

SUPPLEMENTAL OBSERVATIONS (NWS SAN ANGELO AREA)

CITY           SKY/WX    TMP DP  RH WIND       PRES   REMARKS
WEINERT          N/A     76  58  53 S24       29.77F
HASKELL          N/A     75  56  51 S17G26    29.77F
THROCKMORTON     N/A     71  59  65 S16G23    29.82S
STAMFORD         N/A     75  62  63 S26       29.80F
CLYDE            N/A     69  61  76 S15       29.85F
$$

SUPPLEMENTAL OBSERVATIONS (NWS SHREVEPORT AREA)

CITY           SKY/WX    TMP DP  RH WIND       PRES   REMARKS
$$

SUPPLEMENTAL OBSERVATIONS ARE A COLLECTION OF AUTOMATED INSTRUMENTS
THAT ARE MAINTAINED BY A VARIETY OF FEDERAL AND STATE AGENCIES.
CERTAIN ELEMENTS...SUCH AS HUMIDITY VALUES AND SUSTAINED WIND
SPEEDS...MAY BE APPROXIMATED.





USA.gov is the U.S. government's official web portal to all federal, state and local government web resources and services.